This demonstration page uses our WeatherBlox Daily Observations layout. Learn more.

Left ArrowRight Arrow

Hourly Observations for June 3, 2021

Temp ( °F °C ) Dew Point ( °F °C ) Humidity (%) Winds ( mph kmh ) Pressure ( in mb ) Visibility ( mi km ) Precip ( " mm )
12:53 am 00:53 Clear 77 25 49 9.4 37 37 N 3 6 29.76 1008 10 16 0.00 0.00
1:53 am 01:53 Clear 74 23.3 50 10 43 43 Calm 29.76 1008 10 16 0.00 0.00
2:53 am 02:53 Clear 71 21.7 49 9.4 46 46 Calm 29.76 1008 10 16 0.00 0.00
3:53 am 03:53 Clear 73 22.8 48 8.9 41 41 N 6 9 29.76 1008 10 16 0.00 0.00
4:53 am 04:53 Clear 68 20 50 10 53 53 Calm 29.77 1008 10 16 0.00 0.00
5:53 am 05:53 Sunny 68 20 49 9.4 51 51 Calm 29.77 1008 10 16 0.00 0.00
6:53 am 06:53 Sunny 70 21.1 50 10 49 49 Calm 29.79 1009 10 16 0.00 0.00
7:53 am 07:53 Sunny 76 24.4 48 8.9 37 37 Calm 29.79 1009 10 16 0.00 0.00
8:53 am 08:53 Sunny 82 27.8 48 8.9 31 31 VRB 3 6 29.78 1009 10 16 0.00 0.00
9:53 am 09:53 Sunny 86 30 48 8.9 27 27 VRB 5 7 29.77 1008 10 16 0.00 0.00
10:53 am 10:53 Sunny 91 32.8 50 10 25 25 N 6 9 29.76 1008 10 16 0.00 0.00
11:53 am 11:53 Sunny 95 35 50 10 22 22 Calm 29.75 1008 10 16 0.00 0.00
12:53 pm 12:53 Sunny 98 36.7 45 7.2 16 16 VRB 3 6 29.73 1007 10 16 0.00 0.00
1:53 pm 13:53 Sunny 101 38.3 45 7.2 15 15 E 3 6 29.71 1006 10 16 0.00 0.00
2:53 pm 14:53 Sunny 102 38.9 45 7.2 14 14 SSW 8 13 29.69 1005 10 16 0.00 0.00
3:53 pm 15:53 Sunny 103 39.4 45 7.2 14 14 WNW 6 9 29.67 1005 10 16 0.00 0.00
4:53 pm 16:53 Sunny 104 40 45 7.2 13 13 S 10 17 29.65 1004 10 16 0.00 0.00
5:53 pm 17:53 Sunny 104 40 45 7.2 13 13 S 12 19 29.64 1004 10 16 0.00 0.00
6:53 pm 18:53 Sunny 102 38.9 45 7.2 14 14 SSE 13 20 29.65 1004 10 16 0.00 0.00
7:53 pm 19:53 Sunny 97 36.1 48 8.9 19 19 S 14 22 29.66 1004 10 16 0.00 0.00
8:53 pm 20:53 Clear 96 35.6 44 6.7 17 17 WSW 7 11 29.68 1005 10 16 0.00 0.00
9:53 pm 21:53 Clear 88 31.1 51 10.6 28 28 SE 7 11 29.71 1006 10 16 0.00 0.00
10:53 pm 22:53 Clear 87 30.6 42 5.6 21 21 SSW 3 6 29.73 1007 10 16 0.00 0.00
11:53 pm 23:53 Clear 83 28.3 42 5.6 24 24 W 6 9 29.75 1007 10 16 0.00 0.00

Powered by AerisWeather